Location: Unspecified
(0.0000°N, 0.0000°E)
Time: 10:37:20
(UTC+00:00)

MIDAS 4 DEB - Pass Details

Date: 10 November 2025
Orbit: 3271 x 3959 km, 95.8° (Epoch: 26 July)

Event Time Altitude Azimuth Distance (km) Brightness Sun altitude
Exits shadow 20:28:45 55° 94° (E) 4,126 ? -38.9°
Maximum altitude 20:29:44 56° 103° (ESE) 4,129 ? -39.2°
Drops below altitude 10° 20:48:30 10° 176° (S) 7,012 ? -43.5°
Sets 20:53:15 0° 180° (S) 8,091 ? -44.5°
